SCP
0 0 -0 -0 -0 0 0 0 0 0 0 0 0 -0 0 0 -0 -0 -0 0 0 -0 -0 -0 -0 -0 -0 -0 -0 -0 -0 -0
0 0 0 0 0 0 0 -0 -0 0 0 0 -0 0 0 -1 -1 -0 -0 -0 -0 -0 -0 -0 -0 -0 -0 -0 -0 -0 -0 -0
0 0 0 0 0 0 0 0 0 -0 0 0 -0 0 -0 -0 0 -0 -0 -0 -0 -0 -0 -0 -0 -0 -0 -0 -0 -0 -0 -0
0 0 0 -0 -0 0 0 0 0 0 0 0 0 -0 -0 -0 0 -0 -0 -0 -0 -0 -0 -0 -0 -0 -0 -0 -0 -0 -0 -0
0 0 0 -0 -0 0 0 0 0 0 0 0 0 -0 -0 -0 0 0 0 0 -0 -0 -0 -0 -0 -0 -0 -0 -0 -0 -0 -0
0 0 0 -0 -0 0 0 0 -0 0 0 0 0 0 0 0 0 0 0 0 0 -0 -0 0 0 -0 -0 -0 -0 -0 -0 -0
0 0 0 0 0 -0 -0 -0 -0 0 0 0 0 1 0 1 1 0 0 0 -0 -0 -0 -0 0 0 -0 -0 -0 -0 -0 -0
0 0 0 -0 -0 -0 -0 -0 0 0 0 1 1 0 0 1 0 0 0 0 0 0 0 0 0 0 0 0 0 0 0 0
0 0 0 0 0 -0 -0 -0 -0 0 0 0 0 1 1 1 0 0 0 0 0 0 0 0 0 0 0 0 0 0 0 0
0 0 0 0 -0 0 0 0 0 0 0 1 1 1 1 1 1 0 0 0 0 0 0 0 0 0 0 0 0 0 0 0
0 0 0 0 0 0 0 0 0 -0 0 1 1 0 1 1 1 1 0 0 0 0 0 0 1 0 0 0 0 0 0 0
0 0 0 0 0 0 0 0 0 -0 0 1 1 1 1 1 1 1 0 0 0 0 0 1 1 0 0 0 0 0 0 0
0 0 0 0 0 0 0 0 0 0 0 0 0 1 1 1 1 1 0 0 0 0 0 1 0 0 0 0 0 0 0 0
0 0 0 0 -0 -0 0 0 0 0 0 0 0 0 0 0 1 1 0 0 0 0 0 0 0 0 0 0 0 0 0 0
0 0 0 0 -0 -0 0 0 0 0 0 0 0 0 0 0 0 1 0 1 0 0 0 0 0 0 0 0 0 0 0 0
0 0 0 0 0 0 0 0 0 0 0 0 0 0 0 0 0 1 1 1 1 0 0 1 0 0 0 0 0 0 0 0
0 0 0 0 0 0 0 0 0 0 0 0 0 0 0 0 0 1 1 1 1 1 1 1 3 1 1 1 1 1 1 0
0 0 0 0 0 0 0 0 0 0 0 0 0 0 0 0 1 2 1 2 2 1 2 2 3 4 2 1 2 1 1 1
0 0 0 0 0 0 0 0 0 0 0 0 0 0 0 0 0 3 2 2 2 2 2 3 4 4 5 4 3 4 3 3
0 0 0 0 0 0 0 0 0 0 0 0 0 0 0 0 0 2 3 2 1 1 2 5 6 6 3 4 5 3 4 4
Wind_Speed_500mb
8 9 14 15 11 15 25 34 19 12 10 17 16 44 22 42 63 74 69 72 69 64 61 57 53 47 44 42 42 45 47 48
7 19 18 32 24 7 29 62 0 28 7 13 50 45 42 55 69 71 71 74 71 67 62 58 54 49 44 41 40 43 45 45
8 18 17 22 34 26 29 20 26 29 13 13 26 45 49 67 69 64 75 76 72 68 63 58 55 51 47 42 40 41 44 44
15 15 26 18 40 23 29 41 56 35 30 24 43 54 58 67 63 63 75 78 73 67 63 59 56 53 48 44 40 39 40 43
10 17 23 28 18 15 23 20 53 40 19 11 48 59 75 69 59 70 75 78 74 69 63 60 57 54 50 45 40 37 37 39
11 21 23 15 24 37 28 37 59 62 15 20 71 72 70 63 58 75 77 78 76 71 67 63 60 57 53 48 44 38 36 37
15 13 13 25 9 25 29 46 44 34 30 76 88 80 70 61 68 79 76 78 77 74 69 66 63 60 55 50 46 42 38 37
14 20 15 27 25 24 28 45 42 21 35 84 91 90 84 79 78 83 83 82 78 76 73 69 67 67 64 60 56 51 47 44
15 44 52 47 59 34 21 15 25 18 70 86 99 92 84 84 86 84 79 82 80 74 73 72 73 73 70 67 61 55 49 44
30 44 42 28 47 50 25 39 47 32 66 92 92 94 86 85 85 76 72 73 77 74 70 69 68 70 70 68 62 57 52 46
53 54 61 61 58 56 51 69 65 40 42 73 88 88 86 79 78 75 65 59 73 72 69 68 65 64 63 61 58 53 49 46
54 53 54 40 45 33 87 62 58 51 33 75 85 95 91 90 83 79 70 59 61 71 70 64 61 59 58 55 51 49 46 44
33 12 13 20 24 46 93 45 49 56 31 55 80 89 96 100 89 81 76 73 67 65 70 66 62 57 55 52 50 49 46 44
4 23 12 18 51 60 40 34 52 63 43 40 46 59 83 82 94 89 84 83 75 69 66 64 65 59 50 44 49 45 45 40
20 2 11 26 59 59 45 42 50 57 49 46 44 48 48 56 49 70 89 82 79 75 66 57 57 59 54 47 40 46 37 36
32 9 11 25 55 38 34 41 47 59 64 45 48 52 55 47 45 59 69 78 83 76 65 62 60 60 56 54 46 46 44 36
23 15 22 39 50 36 25 29 39 49 68 54 52 55 55 42 45 40 62 77 96 90 74 66 73 68 63 69 57 49 47 44
39 32 29 40 43 25 17 16 45 51 60 75 74 70 69 61 52 43 50 70 93 95 87 89 77 74 70 66 63 52 46 50
38 35 36 35 39 27 16 17 39 63 71 86 89 74 68 71 62 59 56 68 80 88 89 87 75 85 78 66 59 59 61 56
29 17 23 10 32 33 11 19 18 31 62 72 94 94 82 75 74 75 74 65 76 92 92 93 87 82 80 70 81 79 73 64
Wind_Direction_500mb
152 167 205 242 139 250 290 318 251 105 166 166 187 181 184 176 172 177 175 173 171 170 167 164 160 155 149 144 143 146 145 145
147 219 245 236 267 330 309 302 259 161 157 217 159 177 181 173 171 175 176 175 174 173 170 168 165 160 155 150 145 146 148 147
218 238 252 252 252 270 280 280 317 210 164 193 200 185 169 171 169 175 176 175 176 175 173 172 170 167 162 158 151 148 153 153
226 234 245 255 256 265 264 288 293 213 157 162 189 193 170 170 172 178 177 175 177 176 176 176 176 172 169 166 160 154 156 160
234 236 257 252 266 223 263 264 288 214 141 180 184 183 166 170 175 176 177 174 177 177 179 179 179 177 175 172 169 162 161 165
234 241 261 263 269 264 277 282 313 185 155 175 185 172 165 170 174 179 177 178 179 179 180 182 181 181 180 178 176 172 168 169
219 233 259 286 296 278 304 302 332 239 211 186 173 168 169 168 173 178 181 183 182 181 183 183 182 182 184 183 184 182 180 178
196 223 266 290 288 334 335 312 314 312 187 164 169 172 177 173 171 180 184 186 187 185 184 184 185 185 185 187 190 190 189 188
231 235 256 271 278 303 271 290 305 253 157 164 168 178 182 180 177 179 184 186 190 189 188 187 188 188 188 192 193 194 196 195
256 259 267 268 290 280 275 275 294 317 178 169 168 178 184 185 183 178 183 189 192 193 192 193 194 194 194 194 197 199 200 200
253 251 251 261 260 269 282 272 281 285 210 181 177 181 190 193 190 182 184 188 197 196 197 199 198 200 201 200 202 204 207 207
255 256 247 245 264 268 265 257 265 274 251 199 190 185 189 192 193 192 192 192 191 200 202 203 203 205 206 207 208 209 210 212
252 236 227 260 275 246 256 263 259 265 257 218 201 195 188 193 198 198 200 194 192 194 203 206 206 206 208 210 212 214 214 214
311 240 237 218 261 254 265 254 238 251 256 253 190 192 199 191 200 200 200 197 189 186 196 202 204 203 201 208 217 220 220 216
294 212 227 197 254 259 250 254 238 250 247 243 241 209 193 196 198 197 204 203 196 189 192 202 200 205 207 209 215 217 210 210
257 190 256 261 261 265 257 247 240 240 245 233 219 225 213 201 186 195 199 209 208 198 199 205 202 200 205 210 211 210 213 215
274 262 228 250 265 263 254 231 241 230 231 230 232 228 221 214 209 203 195 206 206 204 210 206 205 205 202 208 209 208 216 223
275 267 264 265 268 269 257 237 236 233 231 241 243 241 233 228 233 216 203 202 203 209 219 211 213 214 213 212 213 216 215 227
255 263 259 271 275 262 246 254 259 241 233 233 240 228 227 224 220 231 220 207 205 213 211 208 215 211 211 218 217 212 211 221
288 256 249 237 260 257 227 230 235 242 232 228 236 240 230 226 223 228 235 230 212 203 208 216 216 214 219 224 217 218 217 214
Wind_Speed_850mb
8 9 14 15 11 15 25 34 19 12 10 17 16 44 22 42 63 74 69 72 69 64 61 57 53 47 44 42 42 45 47 48
7 19 18 32 24 7 29 62 0 28 7 13 50 45 42 55 69 71 71 74 71 67 62 58 54 49 44 41 40 43 45 45
8 18 17 22 34 26 29 20 26 29 13 13 26 45 49 67 69 64 75 76 72 68 63 58 55 51 47 42 40 41 44 44
15 15 26 18 40 23 29 41 56 35 30 24 43 54 58 67 63 63 75 78 73 67 63 59 56 53 48 44 40 39 40 43
10 17 23 28 18 15 23 20 53 40 19 11 48 59 75 69 59 70 75 78 74 69 63 60 57 54 50 45 40 37 37 39
11 21 23 15 24 37 28 37 59 62 15 20 71 72 70 63 58 75 77 78 76 71 67 63 60 57 53 48 44 38 36 37
15 13 13 25 9 25 29 46 44 34 30 76 88 80 70 61 68 79 76 78 77 74 69 66 63 60 55 50 46 42 38 37
14 20 15 27 25 24 28 45 42 21 35 84 91 90 84 79 78 83 83 82 78 76 73 69 67 67 64 60 56 51 47 44
15 44 52 47 59 34 21 15 25 18 70 86 99 92 84 84 86 84 79 82 80 74 73 72 73 73 70 67 61 55 49 44
30 44 42 28 47 50 25 39 47 32 66 92 92 94 86 85 85 76 72 73 77 74 70 69 68 70 70 68 62 57 52 46
53 54 61 61 58 56 51 69 65 40 42 73 88 88 86 79 78 75 65 59 73 72 69 68 65 64 63 61 58 53 49 46
54 53 54 40 45 33 87 62 58 51 33 75 85 95 91 90 83 79 70 59 61 71 70 64 61 59 58 55 51 49 46 44
33 12 13 20 24 46 93 45 49 56 31 55 80 89 96 100 89 81 76 73 67 65 70 66 62 57 55 52 50 49 46 44
4 23 12 18 51 60 40 34 52 63 43 40 46 59 83 82 94 89 84 83 75 69 66 64 65 59 50 44 49 45 45 40
20 2 11 26 59 59 45 42 50 57 49 46 44 48 48 56 49 70 89 82 79 75 66 57 57 59 54 47 40 46 37 36
32 9 11 25 55 38 34 41 47 59 64 45 48 52 55 47 45 59 69 78 83 76 65 62 60 60 56 54 46 46 44 36
23 15 22 39 50 36 25 29 39 49 68 54 52 55 55 42 45 40 62 77 96 90 74 66 73 68 63 69 57 49 47 44
39 32 29 40 43 25 17 16 45 51 60 75 74 70 69 61 52 43 50 70 93 95 87 89 77 74 70 66 63 52 46 50
38 35 36 35 39 27 16 17 39 63 71 86 89 74 68 71 62 59 56 68 80 88 89 87 75 85 78 66 59 59 61 56
29 17 23 10 32 33 11 19 18 31 62 72 94 94 82 75 74 75 74 65 76 92 92 93 87 82 80 70 81 79 73 64
Wind_Direction_850mb
152 167 205 242 139 250 290 318 251 105 166 166 187 181 184 176 172 177 175 173 171 170 167 164 160 155 149 144 143 146 145 145
147 219 245 236 267 330 309 302 259 161 157 217 159 177 181 173 171 175 176 175 174 173 170 168 165 160 155 150 145 146 148 147
218 238 252 252 252 270 280 280 317 210 164 193 200 185 169 171 169 175 176 175 176 175 173 172 170 167 162 158 151 148 153 153
226 234 245 255 256 265 264 288 293 213 157 162 189 193 170 170 172 178 177 175 177 176 176 176 176 172 169 166 160 154 156 160
234 236 257 252 266 223 263 264 288 214 141 180 184 183 166 170 175 176 177 174 177 177 179 179 179 177 175 172 169 162 161 165
234 241 261 263 269 264 277 282 313 185 155 175 185 172 165 170 174 179 177 178 179 179 180 182 181 181 180 178 176 172 168 169
219 233 259 286 296 278 304 302 332 239 211 186 173 168 169 168 173 178 181 183 182 181 183 183 182 182 184 183 184 182 180 178
196 223 266 290 288 334 335 312 314 312 187 164 169 172 177 173 171 180 184 186 187 185 184 184 185 185 185 187 190 190 189 188
231 235 256 271 278 303 271 290 305 253 157 164 168 178 182 180 177 179 184 186 190 189 188 187 188 188 188 192 193 194 196 195
256 259 267 268 290 280 275 275 294 317 178 169 168 178 184 185 183 178 183 189 192 193 192 193 194 194 194 194 197 199 200 200
253 251 251 261 260 269 282 272 281 285 210 181 177 181 190 193 190 182 184 188 197 196 197 199 198 200 201 200 202 204 207 207
255 256 247 245 264 268 265 257 265 274 251 199 190 185 189 192 193 192 192 192 191 200 202 203 203 205 206 207 208 209 210 212
252 236 227 260 275 246 256 263 259 265 257 218 201 195 188 193 198 198 200 194 192 194 203 206 206 206 208 210 212 214 214 214
311 240 237 218 261 254 265 254 238 251 256 253 190 192 199 191 200 200 200 197 189 186 196 202 204 203 201 208 217 220 220 216
294 212 227 197 254 259 250 254 238 250 247 243 241 209 193 196 198 197 204 203 196 189 192 202 200 205 207 209 215 217 210 210
257 190 256 261 261 265 257 247 240 240 245 233 219 225 213 201 186 195 199 209 208 198 199 205 202 200 205 210 211 210 213 215
274 262 228 250 265 263 254 231 241 230 231 230 232 228 221 214 209 203 195 206 206 204 210 206 205 205 202 208 209 208 216 223
275 267 264 265 268 269 257 237 236 233 231 241 243 241 233 228 233 216 203 202 203 209 219 211 213 214 213 212 213 216 215 227
255 263 259 271 275 262 246 254 259 241 233 233 240 228 227 224 220 231 220 207 205 213 211 208 215 211 211 218 217 212 211 221
288 256 249 237 260 257 227 230 235 242 232 228 236 240 230 226 223 228 235 230 212 203 208 216 216 214 219 224 217 218 217 214